This demonstration page uses our WeatherBlox Daily Observations layout. Learn more.

Left ArrowRight Arrow

36.19886, -115.1175

Hourly Observations for June 29, 2021

Temp ( °F °C ) Dew Point ( °F °C ) Humidity (%) Winds ( mph kmh ) Pressure ( in mb ) Visibility ( mi km ) Precip ( " mm )
12:53 am 00:53 Clear 91 32.8 40 4.4 17 17 WNW 7 11 29.67 1005 10 16 N/A
1:53 am 01:53 Clear 94 34.4 39 3.9 15 15 NW 8 13 29.67 1005 10 16 N/A
2:53 am 02:53 Clear 97 36.1 39 3.9 13 13 N 9 15 29.68 1005 10 16 N/A
3:53 am 03:53 Clear 95 35 41 5 15 15 N 8 13 29.68 1005 10 16 N/A
4:53 am 04:53 Clear 91 32.8 42 5.6 18 18 NNW 7 11 29.70 1006 10 16 N/A
5:53 am 05:53 Sunny 87 30.6 42 5.6 21 21 N N/A 29.72 1006 10 16 N/A
6:53 am 06:53 Sunny 90 32.2 44 6.7 20 20 N N/A 29.73 1007 10 16 N/A
7:53 am 07:53 Sunny 94 34.4 43 6.1 17 17 N N/A 29.75 1007 10 16 N/A
8:53 am 08:53 Sunny 98 36.7 39 3.9 13 13 E 17 28 29.75 1007 10 16 N/A
9:53 am 09:53 Sunny 98 36.7 41 5 14 14 ESE 12 19 29.75 1008 10 16 N/A
10:53 am 10:53 Sunny 99 37.2 47 8.3 17 17 SE 5 7 29.75 1008 10 16 N/A
11:53 am 11:53 Sunny 103 39.4 47 8.3 15 15 SSE 9 15 29.74 1007 10 16 N/A
12:53 pm 12:53 Sunny 105 40.6 48 8.9 15 15 E 18 30 29.72 1007 10 16 N/A
1:53 pm 13:53 Sunny 103 39.4 48 8.9 16 16 ESE 16 26 29.70 1006 10 16 N/A
2:24 pm 14:24 Sunny 104 40 47 8.3 15 15 SE 16 26 29.53 1000 10 16 N/A
2:53 pm 14:53 Mostly Cloudy 102 38.9 49 9.4 17 17 S 26 43 29.69 1005 10 16 N/A
3:14 pm 15:14 Mostly Cloudy 98 36.7 46 7.8 17 17 WSW 22 35 29.57 1001 9 14 N/A
3:35 pm 15:35 Partly Cloudy with Nearby Thunderstorms 98 36.7 49 9.4 19 19 WSW 21 33 29.56 1001 10 16 N/A
3:53 pm 15:53 Sunny with Nearby Thunderstorms 98 36.7 48 8.9 18 18 SW 12 19 29.70 1006 10 16 N/A
4:46 pm 16:46 Partly Cloudy 99 37.2 50 10 19 19 S 14 22 29.54 1000 10 16 N/A
4:53 pm 16:53 Mostly Cloudy 99 37.2 49 9.4 18 18 SSW 17 28 29.69 1006 10 16 N/A
5:53 pm 17:53 Sunny 99 37.2 47 8.3 17 17 SW 20 31 29.67 1005 10 16 N/A
6:53 pm 18:53 Sunny 98 36.7 47 8.3 17 17 WSW 10 17 29.70 1006 10 16 N/A
7:53 pm 19:53 Mostly Sunny 96 35.6 49 9.4 20 20 ESE 26 43 29.76 1008 10 16 N/A
8:06 pm 20:06 Mostly Cloudy 91 32.8 56 13.3 31 31 E 25 41 29.66 1004 10 16 N/A
8:53 pm 20:53 Mostly Cloudy with Light Rain 81 27.2 61 16.1 51 51 ENE 25 41 29.89 1012 10 16 0.00 0.00
9:53 pm 21:53 Cloudy with Light Rain 79 26.1 62 16.7 56 56 ENE 7 11 29.98 1015 10 16 0.00 0.00
10:53 pm 22:53 Clear 79 26.1 60 15.6 52 52 NE 10 17 29.96 1015 10 16 0.00 0.00
11:53 pm 23:53 Clear 78 25.6 58 14.4 50 50 E 3 6 29.94 1014 10 16 N/A

Powered by AerisWeather